GW3646 Weather Reports


time (UTC)temp
F
wind
direction
speed
knots
gust
knots
rain 1hr
in
rain 24hr
in
rain mn
in
humidity
%
barometer
mb
20260906195516 101 34 0.0 3.5 0.00 0.00 0.00 33 1013.3
20260906195014 101 209 0.9 6.1 0.00 0.00 0.00 33 1013.3
20260906194530 101 246 0.9 6.1 0.00 0.00 0.00 33 1013.5
20260906194017 101 290 2.6 6.1 0.00 0.00 0.00 33 1013.5
20260906193517 101 265 0.9 5.2 0.00 0.00 0.00 34 1013.5
20260906193013 101 273 0.9 3.5 0.00 0.00 0.00 36 1013.6
20260906192506 101 266 1.7 3.5 0.00 0.00 0.00 34 1013.7
20260906192008 101 310 0.0 2.6 0.00 0.00 0.00 36 1013.7
20260906191533 101 92 0.0 3.5 0.00 0.00 0.00 35 1013.7
20260906191009 101 285 0.0 3.5 0.00 0.00 0.00 37 1013.9
20260906190510 101 239 0.9 6.1 0.00 0.00 0.00 35 1014.0
20260906190030 100 249 1.7 7.8 0.00 0.00 0.00 35 1014.1
20260906185512 101 232 2.6 7.8 0.00 0.00 0.00 34 1014.1
20260906185011 101 229 0.9 6.1 0.00 0.00 0.00 37 1014.1
20260906184529 101 360 1.7 6.1 0.00 0.00 0.00 35 1014.1
20260906184014 101 289 0.0 7.0 0.00 0.00 0.00 35 1014.3
20260906183517 100 140 0.9 7.0 0.00 0.00 0.00 36 1014.3
20260906183030 100 292 0.0 6.1 0.00 0.00 0.00 35 1014.4
20260906182516 100 259 0.9 3.5 0.00 0.00 0.00 36 1014.5
20260906182014 100 310 0.0 5.2 0.00 0.00 0.00 35 1014.6
20260906181536 100 140 0.9 5.2 0.00 0.00 0.00 35 1014.7
20260906181007 100 259 0.9 5.2 0.00 0.00 0.00 36 1014.8
20260906180508 100 243 0.9 6.1 0.00 0.00 0.00 35 1015.0
20260906180031 100 261 1.7 6.1 0.00 0.00 0.00 36 1015.1
20260906175511 100 238 2.6 5.2 0.00 0.00 0.00 36 1015.2
20260906175015 100 250 0.0 3.5 0.00 0.00 0.00 37 1015.3
20260906174526 99 352 0.9 3.5 0.00 0.00 0.00 37 1015.4
20260906174013 99 5 0.0 2.6 0.00 0.00 0.00 37 1015.6
20260906173514 98 327 0.9 2.6 0.00 0.00 0.00 39 1015.6
20260906173030 98 98 0.9 2.6 0.00 0.00 0.00 39 1015.7
20260906172515 98 269 0.9 3.5 0.00 0.00 0.00 38 1015.8
20260906172014 98 313 0.9 3.5 0.00 0.00 0.00 40 1015.9
20260906171534 98 186 0.0 3.5 0.00 0.00 0.00 42 1016.0
20260906171018 97 186 0.0 3.5 0.00 0.00 0.00 39 1016.0
20260906170521 97 193 0.9 2.6 0.00 0.00 0.00 41 1016.1
20260906170032 97 186 0.9 3.5 0.00 0.00 0.00 41 1016.1
20260906165507 97 261 0.0 5.2 0.00 0.00 0.00 41 1016.2
20260906165007 97 261 1.7 5.2 0.00 0.00 0.00 41 1016.3
20260906164536 97 64 0.0 1.7 0.00 0.00 0.00 43 1016.2
20260906164011 96 64 0.0 2.6 0.00 0.00 0.00 43 1016.3
20260906163503 95 30 0.0 3.5 0.00 0.00 0.00 43 1016.3
20260906163004 95 30 0.9 4.3 0.00 0.00 0.00 42 1016.4
20260906162507 95 15 0.9 4.3 0.00 0.00 0.00 43 1016.3
20260906162001 95 59 0.9 1.7 0.00 0.00 0.00 43 1016.3
20260906161510 95 58 0.0 2.6 0.00 0.00 0.00 44 1016.2
20260906161006 95 58 0.9 2.6 0.00 0.00 0.00 45 1016.2
20260906160506 95 37 0.0 2.6 0.00 0.00 0.00 47 1016.2
20260906160013 95 340 0.9 2.6 0.00 0.00 0.00 46 1016.3
20260906155507 95 292 0.0 2.6 0.00 0.00 0.00 44 1016.3
20260906155008 94 225 0.0 2.6 0.00 0.00 0.00 48 1016.2
20260906154535 94 225 0.0 3.5 0.00 0.00 0.00 46 1016.2
20260906154010 94 42 0.0 3.5 0.00 0.00 0.00 48 1016.2
20260906153514 93 67 0.0 2.6 0.00 0.00 0.00 46 1016.2
20260906153028 93 15 0.0 3.5 0.00 0.00 0.00 47 1016.2
20260906152503 92 26 0.0 4.3 0.00 0.00 0.00 48 1016.2
20260906152004 92 292 0.9 4.3 0.00 0.00 0.00 48 1016.2
20260906151506 91 36 0.0 2.6 0.00 0.00 0.00 50 1016.1
20260906151004 91 242 0.9 2.6 0.00 0.00 0.00 49 1016.1
20260906150502 91 360 0.0 2.6 0.00 0.00 0.00 50 1016.1
20260906150011 90 243 0.0 2.6 0.00 0.00 0.00 53 1016.1
20260906145509 89 243 0.0 2.6 0.00 0.00 0.00 51 1016.0
20260906145006 89 263 0.0 1.7 0.00 0.00 0.00 52 1016.0
20260906144515 88 272 0.0 1.7 0.00 0.00 0.00 53 1016.1
20260906144006 87 272 0.0 0.0 0.00 0.00 0.00 57 1016.0
20260906143511 86 272 0.0 0.0 0.00 0.00 0.00 58 1016.0
20260906143022 85 272 0.0 0.0 0.00 0.00 0.00 64 1016.0
20260906142512 84 272 0.0 0.0 0.00 0.00 0.00 68 1016.0
20260906142011 83 272 0.0 0.9 0.00 0.00 0.00 70 1016.0
20260906141534 81 272 0.0 0.9 0.00 0.00 0.00 71 1016.1
20260906141011 80 272 0.0 0.9 0.00 0.00 0.00 73 1016.2
20260906140503 79 272 0.0 0.0 0.00 0.00 0.00 76 1016.1
20260906140008 78 272 0.0 0.0 0.00 0.00 0.00 76 1016.0
20260906135507 76 272 0.0 0.0 0.00 0.00 0.00 78 1016.0
20260906135002 76 272 0.0 0.0 0.00 0.00 0.00 83 1015.9
20260906134518 75 272 0.0 0.0 0.00 0.00 0.00 83 1015.8
20260906134008 74 272 0.0 0.0 0.00 0.00 0.00 82 1015.8
20260906133506 74 272 0.0 0.0 0.00 0.00 0.00 85 1015.7
20260906133016 73 272 0.0 0.0 0.00 0.00 0.00 86 1015.6
20260906132513 73 263 0.0 0.0 0.00 0.00 0.00 86 1015.6
20260906132015 72 245 0.0 0.0 0.00 0.00 0.00 87 1015.6
20260906131524 72 245 0.0 0.0 0.00 0.00 0.00 85 1015.6
20260906131013 72 245 0.0 0.0 0.00 0.00 0.00 85 1015.6
20260906130511 72 245 0.0 0.0 0.00 0.00 0.00 85 1015.6
20260906130032 71 245 0.0 0.0 0.00 0.00 0.00 85 1015.5
20260906125512 71 245 0.0 0.0 0.00 0.00 0.00 86 1015.4
20260906125005 71 245 0.0 0.0 0.00 0.00 0.00 85 1015.3
20260906124512 71 245 0.0 0.0 0.00 0.00 0.00 85 1015.2
20260906124006 71 245 0.0 0.0 0.00 0.00 0.00 85 1015.2
20260906123507 71 245 0.0 0.0 0.00 0.00 0.00 85 1015.1
20260906123016 71 245 0.0 0.0 0.00 0.00 0.00 85 1015.0
20260906122506 71 245 0.0 0.0 0.00 0.00 0.00 84 1014.9
20260906122009 71 245 0.0 0.0 0.00 0.00 0.00 85 1014.9
20260906121522 71 245 0.0 0.0 0.00 0.00 0.00 85 1014.8
20260906121011 71 245 0.0 0.0 0.00 0.00 0.00 85 1014.8
20260906120512 71 245 0.0 0.0 0.00 0.00 0.00 84 1014.7
20260906120029 71 245 0.0 0.0 0.00 0.00 0.00 83 1014.6
20260906115513 71 245 0.0 0.0 0.00 0.00 0.00 83 1014.5
20260906115015 71 245 0.0 0.0 0.00 0.00 0.00 83 1014.5
20260906114544 71 245 0.0 0.0 0.00 0.00 0.00 83 1014.5
20260906114013 71 245 0.0 0.0 0.00 0.00 0.00 83 1014.4
20260906113506 71 245 0.0 0.0 0.00 0.00 0.00 83 1014.4
20260906113015 71 245 0.0 0.0 0.00 0.00 0.00 83 1014.5
20260906112507 71 245 0.0 0.0 0.00 0.00 0.00 83 1014.4
20260906112007 71 245 0.0 0.0 0.00 0.00 0.00 83 1014.3
20260906111518 71 245 0.0 0.0 0.00 0.00 0.00 83 1014.3
20260906111009 71 245 0.0 0.0 0.00 0.00 0.00 82 1014.3
20260906110512 71 245 0.0 0.0 0.00 0.00 0.00 82 1014.2
20260906110026 71 245 0.0 0.0 0.00 0.00 0.00 82 1014.2
20260906105511 72 245 0.0 0.0 0.00 0.00 0.00 82 1014.2
20260906105012 72 245 0.0 0.0 0.00 0.00 0.00 82 1014.1
20260906104534 72 245 0.0 0.0 0.00 0.00 0.00 82 1014.1
20260906104017 72 245 0.0 0.0 0.00 0.00 0.00 82 1014.1
20260906103514 72 245 0.0 0.0 0.00 0.00 0.00 83 1014.0
20260906103034 72 245 0.0 0.0 0.00 0.00 0.00 83 1014.0
20260906102514 72 245 0.0 0.0 0.00 0.00 0.00 83 1014.1
20260906102006 72 245 0.0 0.0 0.00 0.00 0.00 82 1014.1
20260906101514 72 245 0.0 0.0 0.00 0.00 0.00 81 1014.0
20260906101005 72 245 0.0 0.0 0.00 0.00 0.00 80 1014.0
20260906100508 72 245 0.0 0.0 0.00 0.00 0.00 80 1014.0
20260906100021 72 245 0.0 0.0 0.00 0.00 0.00 79 1014.1
20260906095508 72 245 0.0 0.0 0.00 0.00 0.00 79 1014.1
20260906095013 72 245 0.0 0.0 0.00 0.00 0.00 79 1014.1
20260906094551 72 245 0.0 0.0 0.00 0.00 0.00 79 1014.1
20260906094016 72 245 0.0 0.0 0.00 0.00 0.00 80 1014.1
20260906093516 73 245 0.0 0.0 0.00 0.00 0.00 80 1014.0
20260906093042 73 245 0.0 0.0 0.00 0.00 0.00 79 1014.0
20260906092517 73 245 0.0 0.0 0.00 0.00 0.00 78 1014.1
20260906092016 73 245 0.0 0.0 0.00 0.00 0.00 78 1014.0
20260906091532 73 245 0.0 0.0 0.00 0.00 0.00 79 1014.0
20260906091015 73 245 0.0 0.0 0.00 0.00 0.00 79 1014.0
20260906090507 73 245 0.0 0.0 0.00 0.00 0.00 79 1014.1
20260906090024 73 245 0.0 0.0 0.00 0.00 0.00 77 1014.1
20260906085506 74 245 0.0 0.0 0.00 0.00 0.00 77 1014.0
20260906085010 74 245 0.0 0.0 0.00 0.00 0.00 78 1014.0
20260906084527 74 245 0.0 0.0 0.00 0.00 0.00 77 1013.9
20260906084011 74 245 0.0 0.0 0.00 0.00 0.00 76 1013.8
20260906083512 74 245 0.0 0.0 0.00 0.00 0.00 76 1013.8
20260906083042 74 245 0.0 0.0 0.00 0.00 0.00 76 1013.8
20260906082517 74 245 0.0 0.0 0.00 0.00 0.00 76 1013.7
20260906082019 74 245 0.0 0.0 0.00 0.00 0.00 76 1013.7
20260906081537 74 245 0.0 0.0 0.00 0.00 0.00 75 1013.7
20260906081015 75 245 0.0 0.0 0.00 0.00 0.00 75 1013.8
20260906080515 75 245 0.0 0.0 0.00 0.00 0.00 75 1013.8
20260906080039 75 245 0.0 0.0 0.00 0.00 0.00 75 1013.8
20260906075515 75 245 0.0 0.0 0.00 0.00 0.00 74 1013.7
20260906075007 75 245 0.0 0.0 0.00 0.00 0.00 73 1013.7
20260906074528 75 245 0.0 0.0 0.00 0.00 0.00 73 1013.7
20260906074012 75 245 0.0 0.0 0.00 0.00 0.00 72 1013.7
20260906073512 76 245 0.0 0.0 0.00 0.00 0.00 72 1013.7
20260906073028 76 245 0.0 0.0 0.00 0.00 0.00 72 1013.6
20260906072512 76 245 0.0 0.0 0.00 0.00 0.00 71 1013.6
20260906072014 76 245 0.0 0.0 0.00 0.00 0.00 71 1013.6
20260906071529 76 245 0.0 0.0 0.00 0.00 0.00 71 1013.6
20260906071016 76 245 0.0 0.0 0.00 0.00 0.00 71 1013.6
20260906070503 76 245 0.0 0.0 0.00 0.00 0.00 71 1013.7
20260906070010 76 245 0.0 0.0 0.00 0.00 0.00 71 1013.7
20260906065505 76 245 0.0 0.0 0.00 0.00 0.00 71 1013.7
20260906065008 76 245 0.0 0.0 0.00 0.00 0.00 70 1013.7
20260906064516 76 245 0.0 0.0 0.00 0.00 0.00 70 1013.7
20260906064008 76 245 0.0 0.0 0.00 0.00 0.00 70 1013.7
20260906063509 76 245 0.0 0.0 0.00 0.00 0.00 70 1013.7
20260906063027 76 245 0.0 0.0 0.00 0.00 0.00 71 1013.7
20260906062514 76 245 0.0 0.0 0.00 0.00 0.00 71 1013.7
20260906062011 76 245 0.0 0.0 0.00 0.00 0.00 71 1013.7
20260906061529 76 245 0.0 0.0 0.00 0.00 0.00 73 1013.7
20260906061015 76 245 0.0 0.0 0.00 0.00 0.00 73 1013.7
20260906060519 77 245 0.0 0.0 0.00 0.00 0.00 72 1013.6
20260906060031 77 245 0.0 0.0 0.00 0.00 0.00 72 1013.7
20260906055516 77 245 0.0 0.0 0.00 0.00 0.00 71 1013.8
20260906055004 77 245 0.0 0.0 0.00 0.00 0.00 71 1013.8
20260906054515 77 245 0.0 0.0 0.00 0.00 0.00 71 1013.8
20260906054007 77 245 0.0 0.0 0.00 0.00 0.00 71 1013.8
20260906053508 77 245 0.0 0.0 0.00 0.00 0.00 71 1013.8
20260906053020 78 245 0.0 0.0 0.00 0.00 0.00 70 1013.8
20260906052510 78 245 0.0 0.0 0.00 0.00 0.00 69 1013.8
20260906052011 78 245 0.0 0.0 0.00 0.00 0.00 69 1013.8
20260906051526 78 245 0.0 0.0 0.00 0.00 0.00 69 1013.7
20260906051014 78 245 0.0 0.0 0.00 0.00 0.00 69 1013.7
20260906050515 78 245 0.0 0.0 0.00 0.00 0.00 68 1013.7
20260906050034 78 245 0.0 0.0 0.00 0.00 0.00 67 1013.7
20260906045518 79 245 0.0 0.0 0.00 0.00 0.00 67 1013.7
20260906045015 79 245 0.0 0.0 0.00 0.00 0.00 67 1013.7
20260906044533 79 245 0.0 0.0 0.00 0.00 0.00 67 1013.7
20260906044018 79 245 0.0 0.0 0.00 0.00 0.00 67 1013.6
20260906043506 79 245 0.0 0.0 0.00 0.00 0.00 65 1013.7
20260906043020 79 245 0.0 0.0 0.00 0.00 0.00 65 1013.6
20260906042510 80 245 0.0 0.0 0.00 0.00 0.00 64 1013.6
20260906042009 80 245 0.0 0.0 0.00 0.00 0.00 64 1013.6
20260906041523 80 245 0.0 0.0 0.00 0.00 0.00 64 1013.6
20260906041012 80 245 0.0 0.0 0.00 0.00 0.00 64 1013.6
20260906040514 80 245 0.0 0.0 0.00 0.00 0.00 63 1013.6
20260906040032 80 245 0.0 0.0 0.00 0.00 0.00 63 1013.6
20260906035511 80 245 0.0 0.0 0.00 0.00 0.00 63 1013.6
20260906035018 81 245 0.0 0.0 0.00 0.00 0.00 63 1013.7
20260906034532 81 245 0.0 0.0 0.00 0.00 0.00 63 1013.7
20260906034015 81 245 0.0 0.0 0.00 0.00 0.00 62 1013.5
20260906033517 81 245 0.0 0.0 0.00 0.00 0.00 62 1013.6
20260906033045 81 245 0.0 0.0 0.00 0.00 0.00 62 1013.5
20260906032516 81 245 0.0 0.0 0.00 0.00 0.00 61 1013.5
20260906032015 82 245 0.0 0.0 0.00 0.00 0.00 61 1013.4
20260906031534 82 245 0.0 0.0 0.00 0.00 0.00 60 1013.5
20260906031011 82 245 0.0 0.0 0.00 0.00 0.00 60 1013.4
20260906030510 82 245 0.0 0.0 0.00 0.00 0.00 60 1013.4
20260906030024 82 245 0.0 0.0 0.00 0.00 0.00 59 1013.3
20260906025510 83 245 0.0 0.0 0.00 0.00 0.00 59 1013.3
20260906025012 83 245 0.0 0.0 0.00 0.00 0.00 59 1013.2
20260906024544 83 245 0.0 0.0 0.00 0.00 0.00 60 1013.2
20260906024014 83 245 0.0 0.0 0.00 0.00 0.00 60 1013.2
20260906023516 83 245 0.0 0.0 0.00 0.00 0.00 59 1013.0
20260906023032 83 245 0.0 0.0 0.00 0.00 0.00 60 1012.9
20260906022514 83 245 0.0 0.0 0.00 0.00 0.00 60 1012.9
20260906022019 83 245 0.0 0.0 0.00 0.00 0.00 60 1012.9
20260906021532 83 245 0.0 0.0 0.00 0.00 0.00 61 1012.8
20260906021018 84 245 0.0 0.0 0.00 0.00 0.00 61 1012.7
20260906020518 84 245 0.0 0.0 0.00 0.00 0.00 60 1012.6
20260906020018 84 245 0.0 0.0 0.00 0.00 0.00 60 1012.5
20260906015515 84 245 0.0 0.0 0.00 0.00 0.00 60 1012.5
20260906015012 85 245 0.0 0.0 0.00 0.00 0.00 59 1012.4
20260906014539 85 245 0.0 0.0 0.00 0.00 0.00 58 1012.4
20260906014012 85 245 0.0 0.0 0.00 0.00 0.00 58 1012.4
20260906013514 86 245 0.0 0.0 0.00 0.00 0.00 57 1012.2
20260906013042 86 245 0.0 0.0 0.00 0.00 0.00 60 1012.1
20260906012519 87 245 0.0 0.0 0.00 0.00 0.00 60 1012.1
20260906012014 87 245 0.0 0.0 0.00 0.00 0.00 59 1012.0
20260906011532 88 245 0.0 0.0 0.00 0.00 0.00 54 1012.1
20260906011017 89 245 0.0 0.0 0.00 0.00 0.00 56 1012.0
20260906010518 89 245 0.0 0.0 0.00 0.00 0.00 56 1011.9
20260906010020 90 245 0.0 0.0 0.00 0.00 0.00 53 1011.7
20260906005515 91 245 0.0 0.0 0.00 0.00 0.00 52 1011.7
20260906005011 91 245 0.0 0.0 0.00 0.00 0.00 50 1011.6
20260906004523 92 245 0.0 0.0 0.00 0.00 0.00 45 1011.6
20260906004013 92 245 0.0 0.0 0.00 0.00 0.00 45 1011.6
20260906003512 92 245 0.0 0.0 0.00 0.00 0.00 45 1011.7
20260906003005 93 245 0.0 0.0 0.00 0.00 0.00 44 1011.8
20260906002503 93 245 0.0 0.0 0.00 0.00 0.00 44 1011.9
20260906002004 94 245 0.0 0.0 0.00 0.00 0.00 42 1011.9
20260906001512 94 245 0.0 0.0 0.00 0.00 0.00 42 1011.9
20260906001004 94 245 0.0 0.0 0.00 0.00 0.00 41 1011.9
20260906000504 95 245 0.0 2.6 0.00 0.00 0.00 41 1011.9
20260906000014 95 237 0.0 3.5 0.00 0.00 0.00 40 1011.9
20260905235508 96 237 0.0 3.5 0.00 0.00 0.00 39 1011.9
20260905235007 96 277 0.9 2.6 0.00 0.00 0.00 38 1011.9
20260905234519 97 282 0.0 2.6 0.00 0.00 0.00 38 1011.9
20260905234010 97 275 0.0 2.6 0.00 0.00 0.00 38 1012.0
20260905233515 98 152 0.0 5.2 0.00 0.00 0.00 37 1012.0
20260905233026 98 259 0.9 5.2 0.00 0.00 0.00 36 1012.1
20260905232516 99 239 0.0 3.5 0.00 0.00 0.00 35 1012.0
20260905232014 99 159 0.9 4.3 0.00 0.00 0.00 36 1011.9
20260905231506 99 239 0.9 6.1 0.00 0.00 0.00 36 1012.0
20260905231004 99 259 0.0 6.1 0.00 0.00 0.00 36 1012.0
20260905230504 100 236 0.0 5.2 0.00 0.00 0.00 36 1012.0
20260905230009 100 266 0.9 7.8 0.00 0.00 0.00 35 1011.9
20260905225505 100 235 0.9 7.8 0.00 0.00 0.00 35 1011.9
20260905225007 101 184 0.9 6.1 0.00 0.00 0.00 34 1011.9
20260905224513 101 263 0.0 5.2 0.00 0.00 0.00 34 1011.9
20260905224007 101 303 0.0 5.2 0.00 0.00 0.00 34 1011.9
20260905223510 101 265 0.9 3.5 0.00 0.00 0.00 34 1011.9
20260905223023 101 248 0.9 9.6 0.00 0.00 0.00 34 1011.9
20260905222514 101 274 2.6 9.6 0.00 0.00 0.00 34 1011.8
20260905222009 101 240 0.9 7.0 0.00 0.00 0.00 34 1011.8
20260905221527 102 250 0.9 7.0 0.00 0.00 0.00 33 1011.8
20260905221014 101 248 0.9 5.2 0.00 0.00 0.00 32 1011.8
20260905220515 101 250 0.9 6.1 0.00 0.00 0.00 34 1011.7
20260905220032 101 255 1.7 6.1 0.00 0.00 0.00 33 1011.7
20260905215503 101 159 0.9 6.1 0.00 0.00 0.00 34 1011.7
20260905215002 101 250 1.7 7.0 0.00 0.00 0.00 34 1011.8
20260905214510 101 278 1.7 7.8 0.00 0.00 0.00 35 1011.7
20260905214006 101 272 2.6 7.8 0.00 0.00 0.00 35 1011.8
20260905213509 101 12 0.9 6.1 0.00 0.00 0.00 33 1011.8
20260905213018 101 236 1.7 6.1 0.00 0.00 0.00 33 1011.8
20260905212508 101 310 0.9 7.0 0.00 0.00 0.00 34 1011.8
20260905212012 100 246 0.9 7.0 0.00 0.00 0.00 35 1011.9
20260905211534 100 259 0.0 5.2 0.00 0.00 0.00 37 1012.0
20260905211013 100 335 1.7 5.2 0.00 0.00 0.00 37 1012.2
20260905210515 100 270 0.0 5.2 0.00 0.00 0.00 37 1012.3
20260905210029 100 277 0.9 6.1 0.00 0.00 0.00 36 1012.3
20260905205516 100 249 0.9 6.1 0.00 0.00 0.00 35 1012.4
20260905205016 101 269 2.6 5.2 0.00 0.00 0.00 34 1012.4
20260905204535 101 259 0.9 5.2 0.00 0.00 0.00 34 1012.5
20260905204006 101 165 0.9 7.8 0.00 0.00 0.00 33 1012.6
20260905203504 101 312 1.7 7.8 0.00 0.00 0.00 34 1012.7
20260905203013 101 282 0.9 5.2 0.00 0.00 0.00 34 1012.8
20260905202507 101 262 1.7 5.2 0.00 0.00 0.00 35 1012.9
20260905202007 101 207 0.9 7.0 0.00 0.00 0.00 35 1012.9
20260905201519 101 252 1.7 7.0 0.00 0.00 0.00 36 1013.1
20260905201009 101 150 1.7 6.1 0.00 0.00 0.00 37 1013.1
20260905200513 100 266 0.9 7.0 0.00 0.00 0.00 38 1013.2
20260905200023 100 176 0.9 7.0 0.00 0.00 0.00 38 1013.2